Terminal Aerodrome Forecast
Issued by NWS Wichita, KS

Home | Current Version | Previous Version | Graphics & Text | Print | Product List | Glossary On
Versions: 1 2 3 4 5 6 7 8 9 10 11 12 13 14 15 16 17
751
FTUS43 KICT 192249 AAB
TAFICT
TAF AMD
KICT 192249Z 1923/2018 15011KT P6SM VCTS BKN070CB
     FM200200 16008KT P6SM FEW070
     FM201600 19014G22KT P6SM SCT050 BKN250=

USA.gov is the U.S. government's official web portal to all federal, state and local government web resources and services.